Weather History for PAHO - November, 2011

Change the Weather History Date:

Sunday, November 27, 2011

  Actual Average Record
Temperature  
Mean Temperature 17 °F -  
Max Temperature 26 °F 34 °F 50 °F (1956)
Min Temperature 8 °F 22 °F -5 °F (1948)
Degree Days  
Heating Degree Days 48    
Moisture  
Dew Point 15 °F    
Average Humidity 87    
Maximum Humidity 96    
Minimum Humidity 79    
Precipitation  
Precipitation 0.00 in - - ()
Sea Level Pressure  
Sea Level Pressure 29.30 in    
Wind  
Wind Speed 7 mph (NE)    
Max Wind Speed 22 mph    
Max Gust Speed 26 mph    
Visibility 9 miles    
Events Snow    
Averages and records for this station are not official NWS values.
T = Trace of Precipitation, MM = Missing Value Source: NWS Daily Summary

Daily Weather History Graph

Daily Weather History Graph

Search for Another Location

Airport or City:

Trip Planner

Search our weather history database for the weather conditions in past years. The results will help you decide how hot, cold, wet, or windy it might be!

Date:

Astronomy

Nov. 27, 2011 Rise Set
Actual Time 9:29 AM AKST 4:16 PM AKST
Civil Twilight 8:37 AM AKST 5:08 PM AKST
Nautical Twilight 7:44 AM AKST 6:02 PM AKST
Astronomical Twilight 6:54 AM AKST 6:51 PM AKST
Moon 12:08 PM AKST (11/27) 7:05 PM AKST (11/27)
Length of Visible Light 8h 31m
Length of Day
6h 47m
Waxing Crescent, 9% of the Moon is Illuminated
Nov 27
Waxing Crescent
Dec 2
First Quarter
Dec 10
Full
Dec 17
Last Quarter
Dec 24
New

Hourly Weather History & Observations

Time (AKST) Temp. Windchill Dew Point Humidity Pressure Visibility Wind Dir Wind Speed Gust Speed Precip Events Conditions
12:53 AM 8.1 °F 1.4 °F 3.9 °F 83% 29.49 in 10.0 mi NNE 3.5 mph - N/A   Clear
1:53 AM 10.9 °F 1.4 °F 7.0 °F 84% 29.47 in 10.0 mi NE 5.8 mph - N/A   Overcast
3:53 AM 10.9 °F 4.7 °F 6.1 °F 81% 29.44 in 10.0 mi NE 3.5 mph - N/A   Mostly Cloudy
4:43 AM 12.2 °F 6.1 °F 6.8 °F 79% 29.43 in 10.0 mi NNE 3.5 mph - N/A   Overcast
4:53 AM 12.0 °F 2.7 °F 7.0 °F 80% 29.43 in 10.0 mi NNE 5.8 mph - N/A   Overcast
5:38 AM 12.2 °F 6.1 °F 10.4 °F 92% 29.42 in 6.0 mi North 3.5 mph - N/A   Overcast
5:53 AM 12.9 °F - 10.0 °F 88% 29.42 in 6.0 mi Calm Calm - N/A   Overcast
6:53 AM 14.0 °F 6.5 °F 10.9 °F 88% 29.40 in 5.0 mi NE 4.6 mph - 0.00 in Snow Light Snow
7:53 AM 15.1 °F 6.4 °F 12.0 °F 88% 29.38 in 8.0 mi ENE 5.8 mph - 0.00 in   Overcast
8:53 AM 16.0 °F 5.3 °F 12.9 °F 88% 29.37 in 10.0 mi NE 8.1 mph - N/A   Overcast
9:53 AM 16.0 °F 6.3 °F 14.0 °F 92% 29.36 in 10.0 mi NE 6.9 mph - 0.00 in   Overcast
10:53 AM 18.0 °F 9.8 °F 16.0 °F 92% 29.34 in 10.0 mi NE 5.8 mph - N/A   Overcast
11:53 AM 19.9 °F 11.1 °F 18.0 °F 92% 29.31 in 10.0 mi East 6.9 mph - N/A   Overcast
12:53 PM 21.0 °F - 18.0 °F 88% 29.27 in 10.0 mi Calm Calm - N/A   Overcast
1:53 PM 21.0 °F - 18.0 °F 88% 29.26 in 10.0 mi Calm Calm - N/A   Overcast
2:53 PM 25.0 °F 14.2 °F 21.9 °F 88% 29.22 in 10.0 mi NE 11.5 mph - N/A   Mostly Cloudy
3:53 PM 23.0 °F 9.6 °F 21.9 °F 96% 29.20 in 10.0 mi ENE 16.1 mph 26.5 mph N/A   Overcast
4:53 PM 24.1 °F 11.0 °F 21.9 °F 91% 29.18 in 10.0 mi ENE 16.1 mph 20.7 mph N/A   Overcast
5:53 PM 25.0 °F 18.1 °F 21.9 °F 88% 29.18 in 10.0 mi NNE 5.8 mph - N/A   Overcast
6:53 PM 26.1 °F 14.5 °F 23.0 °F 88% 29.18 in 10.0 mi ENE 13.8 mph 19.6 mph N/A   Overcast
7:53 PM 26.1 °F 14.5 °F 21.9 °F 84% 29.17 in 10.0 mi NE 13.8 mph - N/A   Partly Cloudy
8:53 PM 25.0 °F 13.1 °F 21.0 °F 85% 29.17 in 10.0 mi ENE 13.8 mph - N/A   Mostly Cloudy
9:53 PM 24.1 °F 9.0 °F 19.9 °F 84% 29.17 in 10.0 mi ENE 21.9 mph 25.3 mph N/A   Overcast
10:53 PM 23.0 °F 9.6 °F 19.0 °F 85% 29.17 in 10.0 mi ENE 16.1 mph - N/A   Overcast
11:53 PM 21.9 °F 7.8 °F 18.0 °F 85% 29.19 in 10.0 mi ENE 17.3 mph - N/A   Overcast